Time,TemperatureF,DewpointF,PressureIn,WindDirection,WindDirectionDegrees,WindSpeedMPH,WindSpeedGustMPH,Humidity,HourlyPrecipIn,Conditions,Clouds,dailyrainin,SoftwareType,DateUTC
2013-09-25 00:00:00,54.2,49.2,29.84,WSW,248,0.0,0.0,83,0.00,,,0.00,WUHU216HW,2013-09-25 05:00:00,
2013-09-25 00:05:00,54.2,49.2,29.84,WSW,248,0.0,0.0,83,0.00,,,0.00,WUHU216HW,2013-09-25 05:05:00,
2013-09-25 00:30:00,53.9,49.2,29.83,WSW,248,0.0,0.0,84,0.00,,,0.00,WUHU216HW,2013-09-25 05:30:00,
2013-09-25 00:35:00,53.9,49.2,29.83,WSW,248,0.0,0.0,84,0.00,,,0.00,WUHU216HW,2013-09-25 05:35:00,
2013-09-25 01:00:00,53.7,49.3,29.84,WSW,248,0.0,0.0,85,0.00,,,0.00,WUHU216HW,2013-09-25 06:00:00,
2013-09-25 01:05:00,53.7,49.3,29.84,WSW,248,0.0,0.0,85,0.00,,,0.00,WUHU216HW,2013-09-25 06:05:00,
2013-09-25 01:30:00,53.5,48.8,29.84,WSW,248,0.0,0.0,84,0.00,,,0.00,WUHU216HW,2013-09-25 06:30:00,
2013-09-25 01:35:00,53.5,48.8,29.84,WSW,248,0.0,0.0,84,0.00,,,0.00,WUHU216HW,2013-09-25 06:35:00,
2013-09-25 02:00:00,53.2,48.5,29.84,ESE,113,0.0,0.0,84,0.00,,,0.00,WUHU216HW,2013-09-25 07:00:00,
2013-09-25 02:05:00,53.2,48.5,29.84,ESE,113,0.0,0.0,84,0.00,,,0.00,WUHU216HW,2013-09-25 07:05:00,
2013-09-25 02:30:00,53.0,48.6,29.83,ESE,113,0.0,0.0,85,0.00,,,0.00,WUHU216HW,2013-09-25 07:30:00,
2013-09-25 02:35:00,53.0,48.6,29.83,ESE,113,0.0,0.0,85,0.00,,,0.00,WUHU216HW,2013-09-25 07:35:00,
2013-09-25 03:00:00,52.8,48.4,29.83,ESE,113,0.0,0.0,85,0.00,,,0.00,WUHU216HW,2013-09-25 08:00:00,
2013-09-25 03:05:00,52.8,48.4,29.83,ESE,113,0.0,0.0,85,0.00,,,0.00,WUHU216HW,2013-09-25 08:05:00,
2013-09-25 03:30:00,52.3,47.9,29.83,ESE,113,0.0,0.0,85,0.00,,,0.00,WUHU216HW,2013-09-25 08:30:00,
2013-09-25 03:35:00,52.3,47.9,29.83,ESE,113,0.0,0.0,85,0.00,,,0.00,WUHU216HW,2013-09-25 08:35:00,
2013-09-25 04:00:00,51.9,47.5,29.84,ESE,113,0.0,0.0,85,0.00,,,0.00,WUHU216HW,2013-09-25 09:00:00,
2013-09-25 04:05:00,51.9,47.5,29.84,ESE,113,0.0,0.0,85,0.00,,,0.00,WUHU216HW,2013-09-25 09:05:00,
2013-09-25 04:30:00,51.5,47.1,29.83,ESE,113,0.0,0.0,85,0.00,,,0.00,WUHU216HW,2013-09-25 09:30:00,
2013-09-25 04:35:00,51.5,47.1,29.83,ESE,113,0.0,0.0,85,0.00,,,0.00,WUHU216HW,2013-09-25 09:35:00,
2013-09-25 05:00:00,51.4,47.3,29.83,SSW,203,0.0,0.0,86,0.00,,,0.00,WUHU216HW,2013-09-25 10:00:00,
2013-09-25 05:05:00,51.4,47.3,29.83,SSW,203,0.0,0.0,86,0.00,,,0.00,WUHU216HW,2013-09-25 10:05:00,
2013-09-25 05:29:00,51.0,46.9,29.84,SE,135,0.0,0.0,86,0.00,,,0.00,WUHU216HW,2013-09-25 10:29:00,
2013-09-25 05:30:00,51.0,46.9,29.84,SE,135,0.0,0.0,86,0.00,,,0.00,WUHU216HW,2013-09-25 10:30:00,
2013-09-25 05:35:00,51.0,46.9,29.84,SE,135,0.0,0.0,86,0.00,,,0.00,WUHU216HW,2013-09-25 10:35:00,
2013-09-25 06:00:00,50.6,46.6,29.85,SE,135,0.0,0.0,86,0.00,,,0.00,WUHU216HW,2013-09-25 11:00:00,
2013-09-25 06:05:00,50.6,46.6,29.85,SE,135,0.0,0.0,86,0.00,,,0.00,WUHU216HW,2013-09-25 11:05:00,
2013-09-25 06:30:00,50.3,46.3,29.86,SE,135,0.0,0.0,86,0.00,,,0.00,WUHU216HW,2013-09-25 11:30:00,
2013-09-25 06:35:00,50.3,46.3,29.86,SE,135,0.0,0.0,86,0.00,,,0.00,WUHU216HW,2013-09-25 11:35:00,
2013-09-25 07:00:00,49.9,45.9,29.86,SE,135,0.0,0.0,86,0.00,,,0.00,WUHU216HW,2013-09-25 12:00:00,
2013-09-25 07:05:00,49.9,45.9,29.86,SE,135,0.0,0.0,86,0.00,,,0.00,WUHU216HW,2013-09-25 12:05:00,
2013-09-25 07:30:00,49.9,45.9,29.86,SSE,158,0.0,0.0,86,0.00,,,0.00,WUHU216HW,2013-09-25 12:30:00,
2013-09-25 07:35:00,49.9,45.9,29.86,SSE,158,0.0,0.0,86,0.00,,,0.00,WUHU216HW,2013-09-25 12:35:00,
2013-09-25 08:00:00,50.3,46.6,29.87,SE,135,0.0,0.0,87,0.00,,,0.00,WUHU216HW,2013-09-25 13:00:00,
2013-09-25 08:05:00,50.3,46.6,29.87,SE,135,0.0,0.0,87,0.00,,,0.00,WUHU216HW,2013-09-25 13:05:00,
2013-09-25 08:30:00,51.9,48.4,29.87,SE,135,0.0,0.0,88,0.00,,,0.00,WUHU216HW,2013-09-25 13:30:00,
2013-09-25 08:35:00,51.9,48.4,29.87,SE,135,0.0,0.0,88,0.00,,,0.00,WUHU216HW,2013-09-25 13:35:00,
2013-09-25 09:00:00,54.2,51.0,29.87,ESE,113,0.0,0.0,89,0.00,,,0.00,WUHU216HW,2013-09-25 14:00:00,
2013-09-25 09:05:00,54.2,51.0,29.87,ESE,113,0.0,0.0,89,0.00,,,0.00,WUHU216HW,2013-09-25 14:05:00,
2013-09-25 09:30:00,57.1,54.2,29.88,ENE,68,0.0,0.0,90,0.00,,,0.00,WUHU216HW,2013-09-25 14:30:00,
2013-09-25 09:35:00,57.1,54.2,29.88,ENE,68,0.0,0.0,90,0.00,,,0.00,WUHU216HW,2013-09-25 14:35:00,
2013-09-25 10:00:00,59.8,56.2,29.88,West,270,0.0,0.0,88,0.00,,,0.00,WUHU216HW,2013-09-25 15:00:00,
2013-09-25 10:05:00,59.8,56.2,29.88,West,270,0.0,0.0,88,0.00,,,0.00,WUHU216HW,2013-09-25 15:05:00,
2013-09-25 10:30:00,62.0,57.4,29.88,North,0,0.0,0.0,85,0.00,,,0.00,WUHU216HW,2013-09-25 15:30:00,
2013-09-25 10:35:00,62.0,57.4,29.88,North,0,0.0,0.0,85,0.00,,,0.00,WUHU216HW,2013-09-25 15:35:00,
2013-09-25 11:00:00,64.3,59.4,29.88,WSW,248,0.0,0.0,84,0.00,,,0.00,WUHU216HW,2013-09-25 16:00:00,
2013-09-25 11:05:00,64.3,59.4,29.88,WSW,248,0.0,0.0,84,0.00,,,0.00,WUHU216HW,2013-09-25 16:05:00,
2013-09-25 11:30:00,66.7,60.4,29.88,South,180,0.0,0.0,80,0.00,,,0.00,WUHU216HW,2013-09-25 16:30:00,
2013-09-25 11:35:00,66.7,60.4,29.88,South,180,0.0,0.0,80,0.00,,,0.00,WUHU216HW,2013-09-25 16:35:00,
2013-09-25 11:59:00,68.3,60.2,29.87,NW,315,0.0,0.0,75,0.00,,,0.00,WUHU216HW,2013-09-25 16:59:00,
2013-09-25 12:00:00,68.3,60.2,29.87,NW,315,0.0,0.0,75,0.00,,,0.00,WUHU216HW,2013-09-25 17:00:00,
2013-09-25 12:05:00,68.3,60.2,29.87,NW,315,0.0,0.0,75,0.00,,,0.00,WUHU216HW,2013-09-25 17:05:00,
2013-09-25 12:30:00,70.6,62.1,29.86,NNW,338,0.0,0.0,74,0.00,,,0.00,WUHU216HW,2013-09-25 17:30:00,
2013-09-25 12:35:00,70.6,62.1,29.86,NNW,338,0.0,0.0,74,0.00,,,0.00,WUHU216HW,2013-09-25 17:35:00,
2013-09-25 12:59:00,72.2,62.5,29.85,SE,135,0.0,0.0,71,0.00,,,0.00,WUHU216HW,2013-09-25 17:59:00,
2013-09-25 13:00:00,72.2,62.5,29.85,SE,135,0.0,0.0,71,0.00,,,0.00,WUHU216HW,2013-09-25 18:00:00,
2013-09-25 13:05:00,72.2,62.5,29.85,SE,135,0.0,0.0,71,0.00,,,0.00,WUHU216HW,2013-09-25 18:05:00,
2013-09-25 13:30:00,73.5,62.1,29.83,West,270,0.0,0.0,67,0.00,,,0.00,WUHU216HW,2013-09-25 18:30:00,
2013-09-25 13:35:00,73.5,62.1,29.83,West,270,0.0,0.0,67,0.00,,,0.00,WUHU216HW,2013-09-25 18:35:00,
2013-09-25 13:59:00,75.5,63.6,29.82,East,90,0.0,0.0,66,0.00,,,0.00,WUHU216HW,2013-09-25 18:59:00,
2013-09-25 14:00:00,75.5,63.6,29.82,East,90,0.0,0.0,66,0.00,,,0.00,WUHU216HW,2013-09-25 19:00:00,
2013-09-25 14:05:00,75.5,63.6,29.82,East,90,0.0,0.0,66,0.00,,,0.00,WUHU216HW,2013-09-25 19:05:00,
2013-09-25 14:30:00,76.6,62.4,29.81,SSE,158,0.0,0.0,61,0.00,,,0.00,WUHU216HW,2013-09-25 19:30:00,
2013-09-25 14:35:00,76.6,62.4,29.81,SSE,158,0.0,0.0,61,0.00,,,0.00,WUHU216HW,2013-09-25 19:35:00,
2013-09-25 14:59:00,77.8,63.0,29.81,SW,225,0.0,0.0,60,0.00,,,0.00,WUHU216HW,2013-09-25 19:59:00,
2013-09-25 15:00:00,77.8,63.0,29.81,SW,225,0.0,0.0,60,0.00,,,0.00,WUHU216HW,2013-09-25 20:00:00,
2013-09-25 15:05:00,77.8,63.0,29.81,SW,225,0.0,0.0,60,0.00,,,0.00,WUHU216HW,2013-09-25 20:05:00,
2013-09-25 15:30:00,78.4,63.6,29.80,East,90,0.0,0.0,60,0.00,,,0.00,WUHU216HW,2013-09-25 20:30:00,
2013-09-25 15:35:00,78.4,63.6,29.80,East,90,0.0,0.0,60,0.00,,,0.00,WUHU216HW,2013-09-25 20:35:00,
2013-09-25 15:59:00,79.1,63.8,29.79,ESE,113,0.0,0.0,59,0.00,,,0.00,WUHU216HW,2013-09-25 20:59:00,
2013-09-25 16:00:00,79.1,63.8,29.79,ESE,113,0.0,0.0,59,0.00,,,0.00,WUHU216HW,2013-09-25 21:00:00,
2013-09-25 16:05:00,79.1,63.8,29.79,ESE,113,0.0,0.0,59,0.00,,,0.00,WUHU216HW,2013-09-25 21:05:00,
2013-09-25 16:30:00,79.1,62.8,29.79,ESE,113,0.0,0.0,57,0.00,,,0.00,WUHU216HW,2013-09-25 21:30:00,
2013-09-25 16:35:00,79.1,62.8,29.79,ESE,113,0.0,0.0,57,0.00,,,0.00,WUHU216HW,2013-09-25 21:35:00,
2013-09-25 16:59:00,79.1,63.3,29.79,SSE,158,0.0,0.0,58,0.00,,,0.00,WUHU216HW,2013-09-25 21:59:00,
2013-09-25 17:00:00,79.1,63.3,29.79,SSE,158,0.0,0.0,58,0.00,,,0.00,WUHU216HW,2013-09-25 22:00:00,
2013-09-25 17:05:00,79.1,63.3,29.79,SSE,158,0.0,0.0,58,0.00,,,0.00,WUHU216HW,2013-09-25 22:05:00,
2013-09-25 17:30:00,78.7,62.9,29.79,SSE,158,0.0,0.0,58,0.00,,,0.00,WUHU216HW,2013-09-25 22:30:00,
2013-09-25 17:35:00,78.7,62.9,29.79,SSE,158,0.0,0.0,58,0.00,,,0.00,WUHU216HW,2013-09-25 22:35:00,
2013-09-25 17:59:00,77.6,61.9,29.80,East,90,0.0,0.0,58,0.00,,,0.00,WUHU216HW,2013-09-25 22:59:00,
2013-09-25 18:00:00,77.6,61.9,29.80,East,90,0.0,0.0,58,0.00,,,0.00,WUHU216HW,2013-09-25 23:00:00,
2013-09-25 18:05:00,77.6,61.9,29.80,East,90,0.0,0.0,58,0.00,,,0.00,WUHU216HW,2013-09-25 23:05:00,
2013-09-25 18:30:00,75.1,60.5,29.80,SE,135,0.0,0.0,60,0.00,,,0.00,WUHU216HW,2013-09-25 23:30:00,
2013-09-25 18:35:00,75.1,60.5,29.80,SE,135,0.0,0.0,60,0.00,,,0.00,WUHU216HW,2013-09-25 23:35:00,
2013-09-25 18:59:00,72.4,59.3,29.80,SE,135,0.0,0.0,63,0.00,,,0.00,WUHU216HW,2013-09-25 23:59:00,
2013-09-25 19:00:00,72.4,59.3,29.80,SE,135,0.0,0.0,63,0.00,,,0.00,WUHU216HW,2013-09-26 00:00:00,
2013-09-25 19:05:00,72.4,59.3,29.80,SE,135,0.0,0.0,63,0.00,,,0.00,WUHU216HW,2013-09-26 00:05:00,
2013-09-25 19:29:00,69.5,58.2,29.79,SSW,203,0.0,0.0,67,0.00,,,0.00,WUHU216HW,2013-09-26 00:29:00,
2013-09-25 19:30:00,69.5,58.2,29.79,SSW,203,0.0,0.0,67,0.00,,,0.00,WUHU216HW,2013-09-26 00:30:00,
2013-09-25 19:35:00,69.5,58.2,29.79,SSW,203,0.0,0.0,67,0.00,,,0.00,WUHU216HW,2013-09-26 00:35:00,
2013-09-25 19:59:00,67.7,57.3,29.80,SSE,158,0.0,0.0,69,0.00,,,0.00,WUHU216HW,2013-09-26 00:59:00,
2013-09-25 20:00:00,67.7,57.3,29.80,SSE,158,0.0,0.0,69,0.00,,,0.00,WUHU216HW,2013-09-26 01:00:00,
2013-09-25 20:05:00,67.7,57.3,29.80,SSE,158,0.0,0.0,69,0.00,,,0.00,WUHU216HW,2013-09-26 01:05:00,
2013-09-25 20:30:00,65.9,56.8,29.81,SSW,203,0.0,0.0,72,0.00,,,0.00,WUHU216HW,2013-09-26 01:30:00,
2013-09-25 20:35:00,65.9,56.8,29.81,SSW,203,0.0,0.0,72,0.00,,,0.00,WUHU216HW,2013-09-26 01:35:00,
2013-09-25 21:00:00,64.0,55.7,29.80,SSW,203,0.0,0.0,74,0.00,,,0.00,WUHU216HW,2013-09-26 02:00:00,
2013-09-25 21:05:00,64.0,55.7,29.80,SSW,203,0.0,0.0,74,0.00,,,0.00,WUHU216HW,2013-09-26 02:05:00,
2013-09-25 21:30:00,62.7,55.5,29.81,SSW,203,0.0,0.0,77,0.00,,,0.00,WUHU216HW,2013-09-26 02:30:00,
2013-09-25 21:35:00,62.7,55.5,29.81,SSW,203,0.0,0.0,77,0.00,,,0.00,WUHU216HW,2013-09-26 02:35:00,
2013-09-25 22:00:00,62.0,55.5,29.81,SSE,158,0.0,0.0,79,0.00,,,0.00,WUHU216HW,2013-09-26 03:00:00,
2013-09-25 22:05:00,62.0,55.5,29.81,SSE,158,0.0,0.0,79,0.00,,,0.00,WUHU216HW,2013-09-26 03:05:00,
2013-09-25 22:30:00,61.3,55.1,29.82,SW,225,0.0,0.0,80,0.00,,,0.00,WUHU216HW,2013-09-26 03:30:00,
2013-09-25 22:35:00,61.3,55.1,29.82,SW,225,0.0,0.0,80,0.00,,,0.00,WUHU216HW,2013-09-26 03:35:00,
2013-09-25 23:00:00,60.5,54.0,29.82,SSW,203,0.0,0.0,79,0.00,,,0.00,WUHU216HW,2013-09-26 04:00:00,
2013-09-25 23:01:00,60.5,54.0,29.82,SSW,203,0.0,0.0,79,0.00,,,0.00,WUHU216HW,2013-09-26 04:01:00,
2013-09-25 23:06:00,60.5,54.0,29.82,SSW,203,0.0,0.0,79,0.00,,,0.00,WUHU216HW,2013-09-26 04:06:00,
2013-09-25 23:30:00,59.5,53.7,29.82,SW,225,0.0,0.0,81,0.00,,,0.00,WUHU216HW,2013-09-26 04:30:00,
2013-09-25 23:35:00,59.5,53.7,29.82,SW,225,0.0,0.0,81,0.00,,,0.00,WUHU216HW,2013-09-26 04:35:00,
2013-09-25 23:59:00,58.7,53.3,29.82,SW,225,0.0,0.0,82,0.00,,,0.00,WUHU216HW,2013-09-26 04:59:00,